Location: Fort Worth, Tx
(32.7431°N, 97.3695°W)
Time: 00:26:23
(UTC-05:00)

Tiros 1 despin weight - Visible Passes

Search period start: 06 February 2023 00:00
Search period end: 16 February 2023 00:00
Orbit: 589 x 636 km, 48.2° (Epoch: 05 February)

Date Brightness Start Highest point End Pass type
(mag) Time Alt. Az. Time Alt. Az. Time Alt. Az.
06 Feb ? 20:45:54 10° NNW 20:48:12 16° N 20:48:12 16° N visible
07 Feb ? 21:00:15 10° NNW 21:02:32 21° N 21:02:32 21° N visible
08 Feb ? 19:34:10 10° NNW 19:36:35 14° NNE 19:38:57 10° NE visible
08 Feb ? 21:14:41 10° NW 21:16:55 25° NNW 21:16:55 25° NNW visible
09 Feb ? 19:48:32 10° NNW 19:51:47 19° NNE 19:54:27 12° ENE visible
09 Feb ? 21:29:16 10° NW 21:31:25 28° NW 21:31:25 28° NW visible
10 Feb ? 20:02:53 10° NNW 20:06:50 29° NNE 20:09:03 19° ENE visible
10 Feb ? 21:44:05 10° WNW 21:46:02 24° WNW 21:46:02 24° WNW visible
11 Feb ? 20:17:20 10° NW 20:21:44 50° NE 20:23:49 28° E visible
11 Feb ? 21:59:23 10° WNW 22:00:49 17° W 22:00:49 17° W visible
12 Feb ? 20:31:58 10° NW 20:36:29 83° SW 20:38:47 28° SE visible
13 Feb ? 20:46:52 10° WNW 20:51:04 39° SW 20:53:58 18° SSE visible
14 Feb ? 21:02:24 10° W 21:05:32 19° SW 21:08:36 10° S visible
15 Feb ? 19:34:38 10° NW 19:39:09 67° SW 19:43:34 10° SE visible
